GFSFLT2_850_thetae_309.txt.gz
Theta_e
283 284 284 284 284 284 285 285 285 285 285 285 285 285 285 286 286 287 288 288 288 289 290 291 292 292 293
283 284 284 284 284 284 285 285 285 285 285 285 285 285 285 285 285 285 286 287 288 288 288 289 290 291 291
284 284 284 284 284 285 285 285 285 285 286 286 286 286 286 285 285 285 285 285 286 287 288 288 288 289 290
283 284 285 284 285 284 285 285 285 285 286 286 286 285 286 285 285 285 285 285 285 285 286 287 287 288 288
284 284 284 285 284 284 284 284 285 285 285 286 285 286 286 286 286 286 285 285 285 285 285 286 286 287 287
285 285 284 284 284 284 284 283 283 284 285 286 286 286 286 286 286 286 286 286 286 285 285 285 285 285 286
285 284 284 284 283 283 282 283 284 285 285 285 285 285 286 286 286 286 286 286 286 286 285 285 284 285 285
282 283 283 283 283 283 284 285 285 285 285 284 285 285 285 285 286 286 286 286 286 286 285 284 285 286 287
283 283 283 283 284 285 285 284 284 285 285 284 284 284 284 285 285 286 286 286 286 286 286 285 286 287 287
281 282 283 282 282 282 282 281 282 283 283 283 284 284 284 285 285 285 285 286 286 286 286 286 285 286 286
282 281 281 281 280 280 280 281 281 282 283 283 283 284 285 285 284 285 285 285 286 286 286 285 285 284 285
280 280 280 280 280 279 280 281 281 281 281 282 281 282 283 284 284 284 285 285 285 286 286 285 285 285 286
278 278 278 278 279 279 280 280 281 281 281 282 282 282 282 283 283 284 284 285 285 286 286 285 286 287 286
277 278 278 278 279 279 280 280 280 281 281 282 282 282 282 283 283 284 284 284 285 286 286 286 286 287 287
277 278 278 278 279 279 279 280 280 280 281 282 282 282 282 282 283 283 284 284 285 286 286 286 287 287 287
277 277 277 278 279 279 279 279 279 280 281 281 282 282 282 282 282 283 284 284 285 286 286 286 286 287 288
277 277 277 278 278 279 279 279 280 280 281 281 281 281 281 282 282 282 282 283 284 286 287 287 287 287 286

GFSFLT2_850_thetae_315.txt.gz
Theta_e
284 284 284 284 285 285 284 285 285 285 285 286 286 286 286 286 287 287 287 288 288 289 289 289 289 290 291
283 283 283 284 284 284 284 285 285 285 285 285 286 286 286 286 286 286 287 287 287 288 288 288 289 289 289
282 283 283 283 284 284 285 285 285 286 286 286 286 286 286 286 286 287 287 287 287 287 287 287 287 288 288
282 282 283 283 284 284 285 285 286 286 286 286 287 286 286 286 286 287 287 287 287 287 287 287 287 287 287
283 283 283 283 284 284 285 285 285 285 286 286 286 286 286 286 286 286 286 286 287 287 287 287 287 287 287
283 284 284 284 284 285 285 285 285 285 285 285 286 286 287 287 287 287 287 286 286 286 287 287 287 287 287
284 284 285 284 285 285 285 285 285 284 284 284 284 285 285 285 286 287 288 287 287 286 286 286 286 287 287
282 282 282 282 283 283 283 283 284 284 284 285 285 285 285 285 286 287 287 287 287 287 287 287 287 286 286
283 283 283 283 284 284 284 284 284 285 284 285 285 285 284 284 284 284 284 285 287 287 287 287 287 287 286
283 283 283 283 283 284 283 284 283 283 283 283 283 283 283 283 283 284 285 287 287 287 287 287 287 287 287
283 283 282 282 282 282 283 283 282 282 282 282 282 282 282 282 283 284 285 284 284 284 285 286 286 287 286
280 281 281 281 281 281 282 282 282 282 281 281 281 281 281 282 282 282 282 282 283 284 284 285 285 286 286
279 279 279 279 279 279 279 279 279 280 280 279 280 280 280 281 281 281 282 282 282 283 283 284 284 285 285
278 278 278 278 278 278 278 278 279 279 279 279 280 280 280 280 281 281 281 282 282 282 283 283 283 284 285
278 278 277 277 277 278 278 278 279 279 279 280 279 280 280 281 281 281 281 281 282 282 282 283 283 283 284
278 278 277 277 277 277 278 278 278 278 279 279 280 280 280 281 281 281 281 282 282 282 282 282 282 283 283
278 278 277 277 277 277 277 277 278 278 278 278 279 279 280 281 281 281 282 281 282 282 282 282 282 281 281

GFSFLT2_850_thetae_318.txt.gz
Theta_e
284 284 284 284 284 284 285 285 285 285 285 285 285 286 286 286 287 287 287 287 287 288 288 289 289 290 290
283 283 283 284 284 284 284 284 285 285 285 285 285 285 285 285 286 286 287 287 287 287 287 287 288 288 289
283 283 283 283 283 284 284 284 285 285 285 286 287 287 287 287 286 286 286 286 287 287 287 287 287 287 288
282 282 282 283 283 284 284 284 285 286 286 286 286 286 286 287 286 286 286 286 286 286 286 286 287 287 287
282 282 282 283 283 284 284 284 285 285 285 285 285 286 285 286 286 286 286 286 286 286 286 286 286 287 287
283 283 283 284 284 284 284 284 285 285 285 285 285 284 284 285 286 286 286 287 288 288 287 286 286 286 287
284 284 284 284 283 283 283 283 284 285 285 284 283 283 284 285 285 285 286 287 288 288 288 288 287 286 286
282 282 282 282 282 282 282 282 283 283 283 283 284 284 285 285 285 286 286 286 287 287 287 286 287 287 287
282 282 283 284 284 285 285 284 284 284 285 284 285 284 283 283 283 283 283 282 284 286 286 287 287 287 287
282 282 282 282 282 282 282 282 282 283 283 283 283 283 283 282 282 282 284 283 284 285 287 287 286 288 287
282 282 282 282 282 282 282 281 281 282 282 282 282 282 282 282 281 281 281 282 284 285 286 285 283 285 286
282 281 280 279 279 280 281 281 281 282 282 282 281 281 281 281 280 280 280 280 281 281 282 283 283 284 284
281 280 280 279 278 278 278 279 279 279 279 279 279 279 279 279 279 279 280 280 280 281 282 282 283 283 283
280 280 279 279 278 278 278 278 278 278 278 278 279 279 279 279 279 279 280 280 280 281 281 281 282 282 282
279 279 279 279 279 278 278 278 278 278 278 279 279 279 279 279 280 280 280 280 281 281 281 281 282 282 282
279 279 279 279 278 278 278 277 277 277 277 278 278 278 278 279 279 279 280 281 281 281 281 281 281 282 282
279 279 279 279 278 278 277 277 277 277 277 277 277 277 278 278 278 279 280 280 280 281 281 281 281 281 281

GFSFLT2_850_thetae_321.txt.gz
Theta_e
284 284 284 284 284 284 284 285 285 285 285 285 285 286 286 286 286 286 286 287 289 291 291 292 291 290 290
283 283 283 283 283 284 284 284 284 285 285 285 286 287 288 287 286 286 286 286 287 287 287 287 288 289 288
283 283 283 283 283 283 284 284 284 284 285 285 286 288 288 288 288 288 287 286 286 287 287 287 287 287 287
282 282 282 282 283 283 284 284 284 284 285 285 286 286 286 286 286 286 286 286 286 286 286 286 287 287 287
281 282 282 283 283 283 284 284 285 284 285 285 285 285 285 285 285 285 286 287 288 288 288 288 288 287 287
282 282 283 283 283 283 284 284 284 285 285 285 285 285 285 284 284 284 284 285 287 287 288 289 289 289 289
284 284 283 283 283 282 282 282 282 283 283 283 283 283 283 284 284 285 285 286 287 287 288 289 289 289 289
281 281 281 281 281 282 283 283 283 284 284 284 283 284 284 284 284 284 284 284 284 285 285 285 286 287 287
282 282 282 283 284 285 285 284 284 283 282 282 283 283 283 283 283 283 283 283 282 282 284 285 286 286 287
281 281 281 282 282 282 282 282 282 282 282 282 282 282 282 282 282 282 282 282 282 281 281 283 285 285 287
282 282 282 282 282 281 280 280 281 281 281 281 281 281 281 281 281 281 281 281 280 280 280 281 284 285 285
283 282 282 281 280 280 279 279 279 280 280 280 280 281 281 280 280 280 280 279 279 279 280 280 281 282 283
281 282 281 280 280 280 279 279 278 278 278 278 278 278 278 278 278 279 279 279 279 279 280 281 281 282 282
281 280 280 280 280 280 279 279 279 279 279 278 278 278 278 278 279 279 279 279 279 280 280 280 280 281 281
280 279 279 279 279 279 279 279 279 279 279 279 278 278 278 278 278 278 279 279 279 279 280 280 280 281 281
279 279 279 279 279 279 279 279 278 278 278 278 278 278 277 278 278 278 278 279 279 279 280 280 280 280 281
279 279 279 279 279 279 279 278 278 278 278 278 278 277 277 276 278 278 278 278 278 279 279 279 279 280 280